Time,TemperatureF,DewpointF,PressureIn,WindDirection,WindDirectionDegrees,WindSpeedMPH,WindSpeedGustMPH,Humidity,HourlyPrecipIn,Conditions,Clouds,dailyrainin,SoftwareType,DateUTC
2013-04-05 00:00:00,36.2,33.8,29.95,North,350,1.0,4.0,91,0.01,-RA,,0.00,WeatherDisplay:10.37,2013-04-05 04:00:00,
2013-04-05 00:30:00,36.1,34.0,29.94,NW,326,1.0,6.0,92,0.00,-RA,,0.00,WeatherDisplay:10.37,2013-04-05 04:30:00,
2013-04-05 01:00:00,36.0,33.6,29.94,NW,324,1.0,6.0,91,0.00,-RA,,0.00,WeatherDisplay:10.37,2013-04-05 05:00:00,
2013-04-05 01:30:00,35.6,33.5,29.94,NW,323,3.0,6.0,92,0.00,-RA,,0.00,WeatherDisplay:10.37,2013-04-05 05:30:00,
2013-04-05 02:00:00,35.4,33.3,29.93,NW,325,1.0,6.0,92,0.00,-RA,,0.00,WeatherDisplay:10.37,2013-04-05 06:00:00,
2013-04-05 02:30:00,35.4,33.3,29.92,NW,324,1.0,6.0,92,0.00,OVC,,0.00,WeatherDisplay:10.37,2013-04-05 06:30:00,
2013-04-05 03:00:00,35.6,33.2,29.92,NW,323,1.0,5.0,91,0.00,OVC,,0.00,WeatherDisplay:10.37,2013-04-05 07:00:00,
2013-04-05 03:30:00,36.0,33.3,29.92,NW,317,0.0,4.0,90,0.00,OVC,,0.00,WeatherDisplay:10.37,2013-04-05 07:30:00,
2013-04-05 04:00:00,36.1,33.5,29.92,NW,304,0.0,5.0,90,0.00,OVC,,0.00,WeatherDisplay:10.37,2013-04-05 08:00:00,
2013-04-05 04:30:00,36.2,33.5,29.93,NW,313,1.0,5.0,90,0.01,OVC,,0.01,WeatherDisplay:10.37,2013-04-05 08:30:00,
2013-04-05 05:30:00,36.9,34.8,29.92,NNW,328,2.0,6.0,92,0.00,OVC,,0.01,WeatherDisplay:10.37,2013-04-05 09:30:00,
2013-04-05 06:00:00,37.2,35.0,29.92,NNW,328,1.0,6.0,92,0.00,OVC,,0.01,WeatherDisplay:10.37,2013-04-05 10:00:00,
2013-04-05 06:30:00,37.6,35.8,29.91,NNW,337,2.0,5.0,93,0.00,OVC,,0.01,WeatherDisplay:10.37,2013-04-05 10:30:00,
2013-04-05 07:00:00,38.3,36.5,29.92,NNW,337,2.0,5.0,93,0.00,OVC,,0.01,WeatherDisplay:10.37,2013-04-05 11:00:00,
2013-04-05 07:30:00,38.7,36.5,29.95,NW,311,0.0,2.0,92,0.00,OVC,,0.01,WeatherDisplay:10.37,2013-04-05 11:30:00,
2013-04-05 08:00:00,39.3,37.4,29.95,NW,319,2.0,3.0,93,0.00,OVC,,0.01,WeatherDisplay:10.37,2013-04-05 12:00:00,
2013-04-05 08:30:00,40.0,37.9,29.96,NW,308,2.0,4.0,92,0.00,OVC,,0.01,WeatherDisplay:10.37,2013-04-05 12:30:00,
2013-04-05 09:00:00,41.3,39.5,29.96,NW,320,1.0,4.0,93,0.00,OVC,,0.01,WeatherDisplay:10.37,2013-04-05 13:00:00,
2013-04-05 09:30:00,43.0,41.1,29.97,WNW,293,3.0,5.0,93,0.00,OVC,,0.01,WeatherDisplay:10.37,2013-04-05 13:30:00,
2013-04-05 10:00:00,45.0,42.5,29.97,NW,315,2.0,5.0,91,0.00,OVC,,0.01,WeatherDisplay:10.37,2013-04-05 14:00:00,
2013-04-05 10:30:00,47.1,44.6,29.97,NNW,327,3.0,5.0,91,0.00,OVC,,0.01,WeatherDisplay:10.37,2013-04-05 14:30:00,
2013-04-05 11:00:00,50.0,46.0,29.98,NW,321,2.0,5.0,86,0.00,OVC,,0.01,WeatherDisplay:10.37,2013-04-05 15:00:00,
2013-04-05 12:00:00,55.0,47.3,29.96,NW,319,1.0,6.0,75,0.00,OVC,,0.01,WeatherDisplay:10.37,2013-04-05 16:00:00,
2013-04-05 13:00:00,57.6,47.5,29.95,NW,326,3.0,8.0,69,0.00,SCT,,0.01,WeatherDisplay:10.37,2013-04-05 17:00:00,
2013-04-05 13:30:00,59.0,47.7,29.95,NNW,345,1.0,6.0,66,0.00,FEW,,0.01,WeatherDisplay:10.37,2013-04-05 17:30:00,
2013-04-05 14:00:00,60.2,48.0,29.93,WNW,289,3.0,6.0,64,0.00,FEW,,0.01,WeatherDisplay:10.37,2013-04-05 18:00:00,
2013-04-05 16:00:00,61.9,46.0,29.91,NW,323,1.0,6.0,56,0.00,FEW,,0.01,WeatherDisplay:10.37,2013-04-05 20:00:00,
2013-04-05 16:30:00,62.2,44.3,29.91,NW,305,5.0,7.0,52,0.00,CLR,,0.01,WeatherDisplay:10.37,2013-04-05 20:30:00,
2013-04-05 17:00:00,61.7,41.8,29.91,NW,309,6.0,8.0,48,0.00,CLR,,0.01,WeatherDisplay:10.37,2013-04-05 21:00:00,
2013-04-05 17:30:00,61.7,41.2,29.92,WNW,289,2.0,8.0,47,0.00,CLR,,0.01,WeatherDisplay:10.37,2013-04-05 21:30:00,
2013-04-05 19:30:00,59.4,36.2,29.95,WNW,298,3.0,7.0,42,0.00,CLR,,0.01,WeatherDisplay:10.37,2013-04-05 23:30:00,
2013-04-05 20:00:00,58.1,36.3,29.97,WNW,301,2.0,5.0,44,0.00,CLR,,0.01,WeatherDisplay:10.37,2013-04-06 00:00:00,
2013-04-05 20:30:00,56.5,36.5,29.98,WNW,303,1.0,6.0,47,0.00,CLR,,0.01,WeatherDisplay:10.37,2013-04-06 00:30:00,
2013-04-05 21:00:00,54.8,38.0,30.00,WNW,292,0.0,1.0,53,0.00,CLR,,0.01,WeatherDisplay:10.37,2013-04-06 01:00:00,
2013-04-05 21:30:00,52.7,37.4,30.01,WNW,292,0.0,1.0,56,0.00,CLR,,0.01,WeatherDisplay:10.37,2013-04-06 01:30:00,
2013-04-05 22:00:00,51.2,36.9,30.03,WNW,292,0.0,0.0,58,0.00,CLR,,0.01,WeatherDisplay:10.37,2013-04-06 02:00:00,
2013-04-05 22:30:00,49.7,36.4,30.04,WNW,292,0.0,0.0,60,0.00,CLR,,0.01,WeatherDisplay:10.37,2013-04-06 02:30:00,
2013-04-05 23:00:00,48.4,35.5,30.04,WNW,297,0.0,1.0,61,0.00,CLR,,0.01,WeatherDisplay:10.37,2013-04-06 03:00:00,
2013-04-05 23:30:00,47.3,35.3,30.04,WNW,294,0.0,1.0,63,0.00,CLR,,0.01,WeatherDisplay:10.37,2013-04-06 03:30:00,